Location: Molveno
(46.1500°N, 10.9667°E)
Time: 08:07:48
(UTC+00:00)

Cosmos 1743 Rocket - Pass Details

Date: 05 July 2020
Orbit: 605 x 631 km, 82.6° (Epoch: 05 August)

Event Time Altitude Azimuth Distance (km) Brightness Sun altitude
Exits shadow 23:12:35 45° 122° (ESE) 832 3.9 -21.2°
Maximum altitude 23:13:12 49° 93° (E) 789 4.0 -21.2°
Drops below altitude 10° 23:17:24 10° 19° (NNE) 1,971 7.1 -21.2°
Sets 23:19:40 0° 14° (NNE) 2,883 8.4 -21.2°
